Flag for Micronesia Weather past 2 weeks in Palikir, Pohnpei, Micronesia

Now
76 °F

Sprinkles. Mostly cloudy.


Feels Like: 76 °F
Forecast: 75 / 86 °F
Wind: 3 mph from Southwest

Location: Pohnpei

Current Time: Jul 31, 2015 at 9:11:09 PM

Latest Report: Jul 31, 2015 at 7:55 PM


Visibility: 10 mi

Pressure: 29.78 "Hg

Humidity: 97%

Dew point: 76 °F

Location of PalikirLocation

Historic Weather in Palikir — Graph

°F

Palikir temperature yesterday

Maximum temperature yesterday: 87 °F (at 1:52 PM)
Minimum temperature yesterday: 79 °F (at 12:52 AM)
Average temperature yesterday: 82 °F

Past Weeks' High & Low Weather Summary

 TemperatureHumidityPressure
High90 °F (Jul 23, 10:52 AM)99% (Jul 17, 7:50 AM)29.96 "Hg (Jul 17, 7:50 AM)
Low75 °F (Jul 25, 2:56 AM)65% (Jul 23, 10:52 AM)29.71 "Hg (Jul 31, 4:54 AM)
Average81 °F87%29.86 "Hg
* Reported Jul 16 7:53 PM — Jul 31 7:55 PM, Palikir, Weather by CustomWeather, © 2015

Note: Actual official high and low records may vary slightly from our data, if they occured in-between our weather recording intervals... More about our weather records

Advertising

Palikir weather history for previous 24 hours

 ConditionsComfort  
Time TempWeatherWind HumidityBarometerVisibility
7:55 PM
Fri, Jul 31
76 °FSprinkles. Mostly cloudy.3 mph97%29.78 "Hg10 mi
6:52 PM76 °FSprinkles. Mostly cloudy.3 mph97%29.75 "Hg10 mi
5:52 PM75 °FSprinkles. Mostly cloudy.2 mph98%29.74 "Hg10 mi
4:53 PM76 °FSprinkles. Mostly cloudy.3 mph97%29.71 "Hg10 mi
3:54 PM76 °FSprinkles. Mostly cloudy.3 mph91%29.74 "Hg12 mi
2:53 PM78 °FRain showers. Mostly cloudy.3 mph95%29.71 "Hg7 mi
1:53 PM78 °FSprinkles. Mostly cloudy.3 mph95%29.72 "Hg12 mi
12:52 PM77 °FSprinkles. Mostly cloudy.3 mph95%29.75 "Hg10 mi
11:53 AM87 °FMostly cloudy.7 mph76%29.76 "Hg15 mi
10:51 AM87 °FMostly cloudy.3 mph76%29.77 "Hg15 mi
9:53 AM88 °FMostly cloudy.3 mph73%29.78 "Hg15 mi
8:53 AM87 °FMostly cloudy.3 mph73%29.78 "Hg15 mi
6:50 AM82 °FMostly cloudy.3 mph90%29.75 "Hg15 mi
5:52 AM82 °FMostly cloudy.3 mph90%29.72 "Hg15 mi
4:54 AM81 °FMostly cloudy.3 mph88%29.71 "Hg15 mi
3:50 AM82 °FMostly cloudy.3 mph90%29.72 "Hg15 mi
2:53 AM81 °FMostly cloudy.3 mph94%29.73 "Hg15 mi
1:51 AM81 °FMostly cloudy.3 mph93%29.75 "Hg15 mi
12:52 AM81 °FMostly cloudy.3 mph93%29.77 "Hg15 mi
11:50 PM
Thu, Jul 30
82 °FMostly cloudy.3 mph88%29.80 "Hg15 mi
10:52 PM82 °FOvercast.3 mph84%29.80 "Hg15 mi
9:52 PM82 °FMostly cloudy.3 mph86%29.80 "Hg15 mi
Weather by CustomWeather, © 2015

See weather overviewHow to use our weather pages